GFSFLT2_sfc_wetblb_000.txt.gz
Wetbulb
48.07 49.18 49.05 43.25 40.70 44.19 38.24 35.73 36.82 40.39 44.44 50.39 52.92 54.23 57.25 59.27 60.78 61.63 63.92 65.26 66.11 66.57 66.95 67.34 68.29 69.14 69.78 70.28 70.83 71.41 71.89 72.33
47.46 48.34 47.94 46.98 46.72 41.33 37.33 33.70 32.85 38.11 40.12 43.72 48.56 52.13 53.88 56.60 58.94 61.00 63.02 65.13 65.89 67.08 67.52 68.11 68.75 69.75 70.37 70.97 70.93 71.24 71.14 70.30
44.69 44.39 44.63 43.57 41.63 40.19 40.32 37.65 35.14 34.35 38.58 46.52 49.53 52.56 54.01 56.01 59.27 60.24 61.36 63.94 64.99 67.06 68.45 68.70 69.10 69.61 70.10 70.72 71.03 70.87 70.10 68.63
41.08 44.54 47.23 47.32 44.50 43.21 41.52 36.39 36.21 37.40 39.61 49.47 51.55 52.32 55.38 56.18 59.00 57.92 61.01 63.48 64.56 66.71 68.13 68.45 68.46 69.17 69.80 70.67 70.97 71.33 70.13 67.71
37.71 39.79 43.22 43.00 43.70 41.01 40.13 39.10 36.88 38.13 40.51 50.19 51.20 53.28 55.66 55.57 56.57 57.58 60.11 61.15 63.36 64.99 66.47 67.20 67.52 68.82 69.65 70.39 70.74 71.43 69.85 66.10
39.46 41.10 42.83 42.31 45.07 44.04 42.11 37.77 38.33 40.14 43.52 47.96 51.88 53.23 54.77 56.28 56.72 56.66 58.88 60.73 62.13 63.16 64.75 65.98 66.26 67.49 68.86 69.83 70.63 70.33 68.51 65.86
45.34 43.16 45.10 45.17 45.32 44.72 42.98 42.83 42.28 44.98 43.89 48.48 51.74 52.97 54.49 57.61 57.50 57.43 56.91 58.04 60.83 62.67 63.32 64.02 64.47 65.71 67.74 68.93 69.75 69.49 67.63 66.19
43.25 44.36 44.57 44.23 45.66 46.68 46.05 45.16 44.83 45.08 44.80 49.37 53.14 54.24 54.27 55.99 56.98 57.33 57.65 58.48 59.30 61.32 62.33 62.69 63.75 64.55 67.06 68.22 69.05 69.31 67.92 66.94
39.22 41.42 41.44 38.64 44.64 44.89 46.14 46.51 46.76 43.79 48.20 49.65 51.42 53.61 54.34 54.49 56.40 57.99 58.03 58.90 58.14 58.95 60.64 61.49 62.31 64.44 65.85 67.70 69.10 68.86 68.33 68.37
40.90 38.04 33.58 44.07 48.98 48.92 48.63 51.57 51.33 50.96 50.42 51.13 52.98 54.53 54.59 55.07 56.12 56.56 57.61 58.90 58.49 58.79 60.50 61.49 62.24 64.06 65.70 67.36 68.44 68.55 68.22 68.37
35.89 35.52 40.34 47.63 50.27 51.03 50.20 48.91 52.45 52.02 53.92 54.04 53.95 54.85 53.91 54.90 57.51 56.97 58.93 59.89 61.38 61.33 61.22 61.99 63.33 64.65 65.72 66.74 67.82 68.02 67.88 66.99
37.44 35.94 37.46 44.76 51.15 54.75 52.56 45.74 52.06 52.99 52.13 52.19 52.62 48.46 50.67 54.44 56.60 56.52 57.93 59.20 60.14 61.90 62.59 63.81 64.43 65.50 65.40 65.74 66.99 66.98 67.06 66.88
40.73 39.36 42.92 50.33 52.31 54.53 45.63 44.35 52.18 52.59 53.50 53.69 51.24 52.63 55.42 57.64 57.57 59.20 60.48 61.88 63.18 64.21 64.57 64.60 65.03 65.56 64.62 64.83 65.73 66.99 66.70 67.08
43.37 41.05 39.06 52.39 52.54 48.03 51.41 52.00 53.39 54.34 53.45 53.35 53.95 55.72 57.08 58.46 58.67 59.45 60.01 61.37 63.07 63.77 65.01 65.34 64.98 65.60 63.73 64.52 65.19 65.96 66.18 65.96
45.26 44.90 50.57 52.37 50.43 52.90 54.16 53.88 54.04 52.97 54.07 56.56 56.30 57.05 58.78 58.77 59.38 60.17 61.07 62.12 64.61 65.47 64.74 63.98 64.05 64.78 63.00 62.82 64.76 64.88 63.45 62.93
48.75 50.24 50.63 50.59 52.55 52.83 53.69 53.41 54.34 54.75 55.35 57.08 56.75 59.09 59.23 60.18 60.81 60.72 61.48 62.04 63.57 63.54 62.05 61.35 62.42 63.01 63.20 63.94 64.51 63.31 62.11 62.54
48.43 49.97 51.83 51.39 52.57 53.21 53.28 53.76 53.37 53.54 54.57 54.80 55.33 55.73 56.66 57.10 61.21 61.05 60.63 61.97 62.60 61.77 61.65 61.97 62.59 62.26 63.36 64.00 62.80 61.68 61.61 61.03
45.38 50.49 50.18 49.11 52.28 54.60 51.85 51.64 52.48 52.48 51.78 52.71 53.32 53.43 55.13 54.38 57.42 61.04 61.13 61.96 61.38 61.24 62.00 61.56 61.72 61.89 62.01 62.98 63.04 62.41 61.48 60.45
48.21 49.63 50.42 51.17 51.94 52.88 50.40 50.03 51.22 51.18 51.65 51.15 52.19 52.15 53.63 54.06 54.96 59.38 61.47 62.31 62.01 60.71 61.08 60.83 61.02 61.59 62.32 61.33 60.91 60.68 60.24 58.49

GFSFLT2_sfc_wetblb_003.txt.gz
Wetbulb
51.39 53.29 53.71 51.12 49.03 53.86 50.02 47.32 46.97 50.17 53.75 56.10 59.15 59.93 61.31 62.91 64.88 65.88 66.85 68.08 68.79 69.77 70.54 71.41 72.08 72.97 73.77 74.47 75.13 75.37 74.68 76.41
50.92 52.41 53.50 52.55 53.93 47.87 48.73 44.58 42.64 47.16 48.88 50.18 56.98 58.89 61.59 61.79 63.58 65.68 67.56 68.39 69.18 70.29 70.89 71.86 72.31 73.32 73.79 74.65 74.79 75.40 75.01 75.66
49.61 48.77 48.44 49.72 49.36 50.30 51.26 49.48 45.93 44.30 47.74 57.10 59.51 62.30 61.62 62.44 63.96 65.54 67.04 68.40 69.76 70.60 71.08 72.06 72.63 72.86 73.57 73.58 74.64 74.59 75.04 76.05
47.09 50.72 51.87 51.87 51.00 51.81 47.84 47.41 48.23 48.41 48.46 57.37 58.80 60.54 62.00 62.60 63.74 65.40 67.62 68.96 69.52 70.21 70.73 71.28 71.97 72.23 72.79 73.43 73.41 74.74 75.73 75.82
45.80 49.47 50.77 49.28 50.70 52.22 52.40 52.21 50.34 46.00 48.24 58.01 57.86 58.54 60.37 61.80 64.14 64.72 66.26 67.54 69.07 69.73 70.39 70.84 71.60 72.85 72.51 73.50 73.71 74.29 75.17 74.43
44.41 47.00 49.45 47.33 49.12 51.04 50.80 47.98 48.58 48.87 50.81 55.53 57.77 58.74 60.80 62.08 64.18 64.47 64.92 67.19 68.27 68.98 71.06 72.06 72.83 73.27 73.37 73.42 74.01 74.36 74.24 74.20
51.48 51.53 50.04 48.67 48.02 49.64 49.44 51.66 49.28 50.65 51.62 55.68 59.97 61.66 62.52 64.05 65.07 63.38 64.08 65.62 67.63 68.33 70.73 71.87 72.57 72.46 72.94 73.13 74.00 74.79 74.75 73.81
47.46 50.74 50.04 47.68 49.09 50.03 50.75 51.05 51.49 52.31 52.67 57.96 60.63 62.08 61.92 62.34 64.01 63.20 63.62 64.80 66.82 68.47 68.89 69.55 70.67 70.80 71.47 72.24 73.27 74.21 73.82 73.19
46.54 48.58 47.77 45.88 49.29 49.93 51.49 53.03 52.76 50.54 55.22 59.40 57.58 59.02 61.46 63.03 64.01 64.59 65.03 65.16 66.18 67.44 68.54 69.23 69.67 70.65 70.35 71.41 72.69 72.78 72.87 72.76
47.57 47.94 40.95 48.99 53.28 52.67 51.61 52.55 54.21 54.80 56.47 57.99 60.08 61.30 61.03 61.47 63.62 64.75 65.71 65.91 66.08 65.88 67.32 68.61 69.08 69.45 70.76 71.56 72.27 72.39 72.29 71.89
44.52 45.08 48.93 50.44 53.68 51.51 50.11 51.04 57.20 56.61 58.62 58.08 57.91 60.20 59.77 60.34 61.95 63.71 64.43 66.19 66.93 67.27 67.90 68.53 68.23 69.52 70.15 70.59 71.46 71.74 71.46 71.56
47.90 43.16 42.46 51.59 55.21 57.35 56.87 50.08 56.43 57.39 58.18 58.33 58.65 55.73 59.34 60.66 62.30 63.64 65.67 67.26 67.17 68.14 68.32 69.16 69.23 69.86 70.18 70.10 70.70 70.91 71.36 71.51
47.64 46.00 49.30 54.34 55.78 57.56 49.53 52.80 56.92 58.20 58.59 58.63 58.61 60.39 61.10 63.63 65.30 66.31 66.22 67.28 68.93 69.34 69.08 69.67 70.83 71.05 70.61 70.70 70.64 71.86 71.83 70.86
49.30 46.89 44.88 55.65 56.15 53.66 56.72 57.98 58.67 59.31 59.76 59.35 60.42 61.47 62.79 63.93 64.89 66.20 66.89 67.92 69.59 69.66 70.24 70.56 71.34 71.82 70.86 70.54 71.15 70.59 71.14 69.16
50.61 50.15 55.00 55.91 55.86 59.16 60.21 58.75 59.41 60.35 60.90 61.18 61.12 62.31 63.38 64.08 65.27 65.99 67.83 68.59 69.62 69.49 69.51 69.82 70.64 71.10 69.54 69.00 68.53 69.34 68.88 67.70
50.68 53.33 53.03 54.82 57.35 58.45 59.88 59.45 60.77 62.21 62.06 62.27 61.21 63.17 64.93 66.06 66.15 65.67 67.13 68.25 69.48 69.93 69.18 68.24 68.61 68.29 68.67 68.93 69.85 69.09 67.59 67.79
53.06 54.37 53.71 54.62 55.48 56.40 57.40 58.70 58.46 59.58 60.94 61.07 61.20 60.97 63.42 66.45 67.01 67.14 67.69 68.12 69.12 69.50 69.35 68.66 68.67 69.00 69.11 69.52 69.56 68.67 68.06 68.15
50.28 53.80 53.78 54.25 55.42 55.26 53.79 54.09 56.39 57.15 57.00 58.51 60.37 60.94 61.98 62.57 66.01 67.18 67.19 68.40 68.69 68.87 67.72 67.14 68.08 68.30 68.56 69.56 69.48 68.65 67.53 66.91
51.40 53.70 52.14 53.26 53.57 55.11 54.61 54.52 55.45 55.57 56.42 55.24 56.27 57.97 59.75 60.34 61.00 61.26 65.23 66.58 68.74 68.30 67.90 67.53 67.56 67.60 68.36 68.33 68.01 67.27 65.92 65.73

GFSFLT2_sfc_wetblb_006.txt.gz
Wetbulb
53.16 53.62 53.78 53.28 52.00 56.33 52.65 53.35 50.13 52.15 55.44 58.59 60.37 61.13 62.22 62.83 64.99 66.62 68.85 69.33 69.30 70.70 71.86 72.78 73.62 74.92 76.28 77.54 77.39 77.52 77.71 78.31
53.00 54.01 54.15 53.65 56.36 51.17 53.03 48.28 46.43 50.36 52.30 53.55 57.88 58.55 60.16 61.83 64.24 66.76 68.90 69.69 69.76 70.42 71.47 72.79 73.84 74.79 75.75 76.46 77.19 77.39 77.55 77.70
52.97 50.63 50.17 51.42 51.56 53.93 54.18 52.49 48.18 47.53 50.65 58.63 58.81 60.07 60.09 60.75 65.03 66.09 68.20 69.73 70.36 70.49 71.61 72.92 73.62 74.30 75.16 75.90 76.39 76.81 77.25 78.17
48.94 52.88 53.58 53.56 52.69 54.17 50.38 51.01 52.41 51.54 50.98 59.11 60.04 60.36 60.83 61.15 62.32 63.80 68.19 70.25 71.13 71.65 72.01 72.45 73.24 73.68 74.26 75.16 75.84 76.67 77.97 78.49
49.02 50.54 52.43 50.51 52.18 53.86 54.42 54.71 53.57 49.22 51.08 59.01 60.00 60.29 61.72 63.65 65.13 66.40 68.54 70.14 71.41 71.84 72.19 72.72 73.07 74.17 74.28 75.18 75.55 76.22 77.06 77.00
47.20 49.82 51.58 49.33 49.85 51.77 52.12 50.92 51.66 51.87 53.91 56.89 58.01 59.30 60.39 62.25 65.29 66.35 68.99 69.94 71.18 71.66 72.66 73.32 74.49 76.29 76.28 75.14 75.90 76.25 76.46 76.76
52.26 52.31 52.42 51.44 50.33 50.31 49.92 51.38 50.73 53.20 53.41 56.51 58.86 59.52 60.55 61.47 63.00 66.00 68.53 69.21 70.57 71.41 73.62 75.36 75.60 76.16 76.01 75.82 76.23 76.63 76.48 76.42
52.04 52.92 52.46 50.55 51.87 51.22 50.80 51.13 51.71 52.37 53.06 58.25 59.83 60.70 60.42 61.04 62.13 65.57 68.34 68.98 70.77 72.01 73.02 73.92 74.40 75.16 75.57 75.83 76.19 76.91 76.70 76.35
49.82 53.01 52.36 49.33 52.10 52.25 51.77 52.39 52.28 50.28 54.42 57.20 57.41 59.26 61.00 61.94 64.57 65.74 68.29 69.27 70.22 71.67 72.79 74.14 74.56 75.59 75.00 75.60 76.29 76.25 76.28 76.56
50.65 52.40 44.85 52.35 56.22 55.36 53.10 52.74 54.39 55.22 56.63 57.89 59.27 61.91 63.92 65.35 64.27 66.40 68.88 69.71 70.52 71.35 72.78 73.74 74.26 74.40 74.89 75.21 75.36 75.60 75.80 75.77
48.82 49.16 51.80 53.29 55.58 53.78 52.48 52.04 54.88 55.80 57.61 58.46 59.80 62.36 64.32 65.93 66.43 67.97 69.87 71.22 71.29 71.81 72.68 73.51 73.01 73.89 73.78 73.77 74.29 74.38 74.47 74.72
51.37 46.89 44.76 53.91 58.00 60.35 59.90 51.95 56.80 56.73 57.44 58.00 60.38 57.31 58.52 66.13 65.85 66.98 69.59 70.38 70.64 71.14 71.94 71.99 72.30 72.87 72.82 72.82 73.54 73.69 74.32 74.63
50.16 48.98 51.66 57.51 58.06 60.35 51.22 52.97 58.32 59.58 60.63 60.92 60.70 63.08 65.85 66.58 67.16 68.84 69.93 70.56 71.34 71.20 70.54 71.62 72.20 72.82 72.31 72.83 72.90 74.25 75.00 75.09
51.52 49.43 47.28 58.01 58.28 55.27 59.57 62.82 63.05 63.22 63.75 63.76 64.89 65.97 67.11 67.65 68.52 69.42 69.27 69.51 70.09 70.73 71.69 72.80 73.53 73.75 73.10 73.47 75.00 75.36 75.21 74.36
53.14 52.67 57.71 58.67 57.57 60.39 63.38 61.67 63.45 64.47 64.79 65.36 64.92 65.40 66.85 67.04 67.76 68.39 68.83 69.09 70.33 71.06 72.07 73.22 74.32 74.35 73.81 74.83 74.90 74.68 72.51 71.07
55.21 56.17 56.96 57.73 59.43 61.15 62.52 63.10 64.32 64.91 64.73 65.10 64.10 65.12 65.49 66.64 67.43 68.61 69.81 69.64 70.52 70.78 71.54 72.17 73.16 73.87 74.39 73.28 73.71 73.67 72.19 71.89
54.63 56.01 57.40 58.19 59.03 59.65 59.97 62.46 63.55 64.44 64.51 64.88 66.47 66.59 67.39 66.90 68.36 68.84 69.56 70.12 70.31 70.54 71.54 71.70 72.53 72.72 72.87 72.78 72.38 71.13 70.36 70.43
52.78 56.49 55.34 52.27 55.69 57.39 57.76 58.91 60.77 61.59 61.48 62.22 63.93 64.27 65.42 66.20 68.79 68.99 70.08 70.69 70.82 71.16 71.68 71.97 72.27 72.32 72.69 71.84 72.18 70.97 69.23 68.99
56.51 57.67 53.29 52.40 53.56 56.08 56.07 56.65 58.25 58.74 60.33 59.87 60.91 61.73 62.73 63.06 63.68 61.79 66.95 68.10 70.58 70.29 71.05 71.18 71.55 71.63 72.35 72.58 71.71 70.81 69.77 69.76

GFSFLT2_sfc_wetblb_009.txt.gz
Wetbulb
54.81 54.71 53.71 52.70 51.59 56.11 52.53 54.24 51.36 53.43 56.34 59.65 62.07 62.38 62.40 62.62 62.97 63.56 67.38 69.51 69.80 70.09 71.45 73.69 74.42 76.47 77.46 78.70 79.72 80.32 78.81 81.11
54.18 54.79 54.10 52.50 55.56 51.47 53.84 48.79 47.38 51.36 53.26 54.13 58.93 59.92 61.14 61.97 62.21 63.63 65.87 69.21 70.15 70.23 71.01 73.01 73.64 75.71 77.57 78.81 79.33 79.14 79.57 79.95
54.93 52.31 50.83 50.88 50.45 53.72 53.99 52.99 49.21 48.24 52.11 59.39 60.67 61.62 61.01 62.01 62.56 63.47 65.36 68.46 70.16 70.50 71.08 72.35 73.12 74.71 75.86 77.10 78.60 78.99 79.43 79.44
52.13 55.36 55.53 53.63 51.94 52.20 51.09 51.79 52.77 53.27 52.32 59.93 60.96 61.55 61.83 62.19 63.11 63.76 65.71 68.31 70.16 70.96 71.26 71.62 72.95 73.05 73.97 74.99 75.35 77.64 78.90 79.89
50.82 53.21 54.54 52.35 52.80 52.98 53.00 54.64 54.31 50.86 52.07 60.35 61.48 61.42 62.58 62.33 63.17 64.43 65.68 67.26 69.80 70.69 71.26 71.91 72.47 73.66 72.96 74.67 74.16 75.54 78.02 78.10
48.81 51.50 53.21 50.57 51.42 52.08 52.02 49.99 51.64 51.79 54.36 58.24 59.71 60.36 61.25 62.24 63.06 64.68 65.82 68.91 69.47 71.02 72.53 73.49 74.43 74.99 74.69 74.34 73.93 74.80 76.06 76.34
53.46 54.05 54.22 52.75 50.76 50.99 50.44 51.92 50.78 52.99 54.13 57.43 60.84 60.90 61.56 62.23 63.11 63.17 64.34 68.98 70.51 71.38 74.75 75.97 75.97 76.36 76.40 75.70 76.43 75.94 77.32 77.15
51.96 53.26 52.84 51.40 52.92 52.51 51.60 51.39 51.88 52.86 53.38 58.71 60.66 62.38 62.05 61.92 62.59 62.57 63.34 65.29 70.51 71.94 73.21 75.96 76.58 77.58 77.34 77.06 77.50 77.59 78.43 78.06
50.34 53.79 53.29 49.96 52.20 52.77 53.66 54.14 52.80 50.27 54.26 57.61 58.54 60.64 62.32 61.97 62.65 63.11 63.76 65.31 70.00 71.68 73.19 75.26 75.00 77.73 77.65 78.31 78.50 78.53 79.27 79.98
50.29 53.30 45.52 53.68 57.30 56.38 54.43 54.97 55.74 55.40 56.02 57.21 60.29 62.34 62.65 62.76 62.68 64.47 66.25 66.48 69.05 71.21 73.48 76.06 75.63 75.82 77.53 77.33 79.23 79.50 79.73 79.66
49.68 49.74 52.06 53.28 56.91 57.24 56.67 55.23 57.15 57.01 56.98 56.93 58.55 59.30 61.57 63.60 63.65 64.64 65.62 66.68 70.01 72.48 74.10 77.48 76.69 78.11 78.20 76.78 77.74 77.66 77.37 78.49
52.59 47.94 46.59 54.14 59.02 61.41 59.81 52.48 58.38 58.26 57.68 56.76 57.93 54.95 59.35 64.24 65.46 67.36 68.16 67.25 71.77 73.06 74.67 75.60 77.19 76.39 76.15 75.46 75.77 75.81 77.05 77.04
50.25 49.62 52.47 58.75 59.88 61.37 51.34 54.09 63.74 63.80 63.07 61.21 57.09 60.59 64.47 65.86 66.27 68.66 68.85 71.99 73.81 74.28 75.37 76.30 77.10 75.48 75.80 75.40 74.38 75.20 76.16 76.41
51.06 48.59 46.79 60.68 60.17 55.94 61.23 64.16 64.66 64.96 64.76 64.75 61.66 61.94 67.26 67.82 68.40 69.21 70.22 71.86 72.47 73.41 74.25 74.98 76.03 75.93 75.68 75.76 77.39 77.97 77.48 76.48
52.91 53.22 61.91 62.70 60.67 63.26 64.18 64.13 64.87 65.32 65.83 65.80 64.47 66.88 68.17 68.87 70.24 70.96 71.43 71.79 72.24 71.88 73.73 74.34 76.27 76.66 76.19 78.11 78.25 77.58 76.63 76.25
57.32 59.05 59.94 61.46 63.22 63.79 64.75 64.40 65.16 66.16 66.37 66.64 66.53 67.82 68.39 69.35 69.26 69.01 69.82 71.05 71.46 71.89 72.66 73.73 75.84 75.65 76.71 76.43 76.75 75.86 73.98 72.59
57.70 59.36 60.46 60.75 62.00 63.01 63.98 65.29 64.95 67.13 66.95 66.62 67.39 67.20 68.29 68.54 69.30 69.44 70.02 71.34 72.05 71.65 71.84 72.50 74.10 74.56 74.55 75.22 75.53 73.78 73.73 72.53
54.18 60.13 58.98 58.02 60.40 62.26 61.50 61.31 62.86 63.85 63.07 66.28 66.49 65.58 68.19 68.52 69.10 69.25 69.59 70.53 71.54 71.44 72.17 72.93 73.37 73.51 74.14 74.28 74.34 72.86 71.52 71.12
56.28 60.35 57.24 57.21 57.96 58.02 58.72 60.26 60.18 60.89 62.33 62.06 63.29 63.86 64.30 64.69 66.33 63.98 69.93 69.99 70.43 70.84 71.93 72.77 72.99 72.90 72.65 73.25 73.40 72.84 71.27 71.50

GFSFLT2_sfc_wetblb_012.txt.gz
Wetbulb
54.76 55.36 53.35 51.43 49.37 53.72 50.52 52.27 49.76 52.55 55.07 58.11 61.76 62.89 62.87 62.89 64.04 65.48 68.55 69.53 69.44 71.49 71.83 73.54 73.66 74.60 75.59 77.29 77.88 78.71 78.64 78.90
54.89 55.33 54.97 52.33 54.33 48.28 50.03 45.96 46.01 50.68 53.05 54.50 58.77 61.79 63.00 63.33 63.04 64.20 64.83 69.45 70.24 70.32 72.27 73.51 74.47 75.06 76.22 77.12 77.84 78.93 78.93 78.73
54.67 52.68 51.05 50.74 49.79 50.72 51.46 51.08 48.20 47.96 51.49 60.44 61.50 63.99 63.46 63.64 63.97 64.04 65.06 67.10 69.64 70.54 71.52 73.43 74.81 74.81 75.68 76.07 77.70 78.45 78.74 78.59
50.98 55.36 55.48 53.49 51.41 50.83 47.44 49.04 51.06 50.89 52.12 59.91 63.00 62.26 63.91 63.38 64.06 64.92 65.28 67.06 68.90 71.07 71.08 72.09 73.20 74.03 75.06 76.04 77.10 78.01 78.43 78.43
48.39 52.45 55.21 51.81 52.17 52.26 51.26 51.61 49.68 48.85 51.11 59.98 63.34 60.97 64.70 63.73 64.38 65.97 67.88 71.61 69.04 70.00 70.71 71.25 72.07 73.20 74.60 75.52 76.24 77.91 78.01 77.82
47.65 50.55 53.37 51.82 51.95 52.56 51.15 48.00 49.45 50.15 54.05 57.15 60.91 61.84 62.46 64.78 64.59 65.87 68.15 70.37 70.29 70.38 71.67 71.53 72.09 72.82 73.76 74.82 75.88 76.88 77.28 77.18
51.87 52.30 53.25 52.93 51.94 52.11 51.16 52.17 49.64 51.91 52.57 57.09 59.93 62.25 61.82 64.36 65.37 65.15 67.96 69.46 71.65 72.78 73.09 72.39 72.69 72.97 73.37 74.03 74.48 75.13 75.86 76.48
50.91 53.03 52.77 51.58 53.40 52.64 51.93 52.11 52.52 52.77 52.60 57.82 59.88 61.94 62.77 62.91 63.18 65.00 65.79 67.22 70.55 72.07 75.49 75.55 73.57 73.16 73.14 73.36 73.69 74.63 74.57 75.15
48.31 51.84 51.97 49.33 52.58 53.47 53.58 52.81 52.59 50.29 54.63 58.44 58.13 59.95 63.13 64.42 65.47 65.55 66.11 66.63 71.23 72.37 73.29 75.35 75.40 74.56 73.26 73.42 74.66 74.00 74.93 75.47
49.22 51.49 44.07 52.82 56.15 55.21 53.75 54.60 55.41 55.82 57.05 58.35 58.82 60.47 61.77 62.70 64.35 64.53 66.02 66.30 67.60 69.73 73.30 75.10 76.18 75.71 75.80 75.14 75.03 74.71 76.82 76.08
48.58 47.64 51.72 53.19 55.82 55.94 54.27 53.89 57.68 57.01 58.59 57.91 59.50 59.84 60.19 62.14 63.03 64.03 65.09 69.05 68.12 66.59 73.28 75.07 75.77 76.17 76.77 75.68 75.26 76.99 75.91 78.55
50.60 46.19 45.31 54.53 57.74 61.06 59.45 52.48 60.79 61.80 60.47 59.64 60.26 55.00 57.28 62.89 63.27 63.03 63.91 65.87 69.09 67.55 74.54 76.19 76.49 76.73 76.15 76.64 75.98 75.01 77.56 78.23
49.35 47.61 50.64 57.63 59.55 59.99 50.06 53.92 63.18 63.36 63.36 62.83 61.20 63.76 66.57 66.72 70.25 67.78 65.12 67.35 75.37 75.60 74.74 76.17 77.02 76.94 76.03 76.51 76.28 77.37 78.88 78.76
51.22 47.97 45.02 59.69 58.36 53.96 61.20 63.43 63.09 63.22 63.64 63.67 66.00 66.16 66.56 68.54 70.03 70.80 69.91 71.36 75.31 75.79 76.64 77.38 77.69 77.31 76.71 76.77 78.33 78.99 78.31 78.09
50.87 51.72 60.75 63.88 62.98 64.30 64.61 63.80 64.01 64.08 64.14 64.54 64.22 65.41 66.09 69.20 69.11 69.89 70.92 74.50 74.30 75.67 76.42 77.37 78.61 77.17 76.25 77.38 77.47 77.16 76.89 76.83
52.07 57.67 60.70 61.90 62.92 64.18 64.72 64.92 65.77 67.95 67.94 67.02 64.89 66.13 67.47 69.51 70.66 72.31 73.12 73.66 74.02 73.83 74.23 74.86 76.14 76.91 77.33 77.52 77.48 76.87 76.12 75.23
54.25 61.12 61.65 62.22 63.46 64.18 64.85 66.41 66.73 66.41 65.74 66.45 66.94 67.47 69.18 70.88 71.75 71.83 72.17 72.74 73.54 73.46 74.23 75.16 76.61 76.19 76.68 77.20 76.67 74.21 73.21 72.49
54.08 55.57 60.54 59.76 62.46 63.79 62.57 62.93 63.75 63.48 62.56 63.43 64.21 63.54 64.92 67.95 69.47 70.25 70.58 70.91 71.01 72.67 73.44 73.83 74.43 74.72 75.70 76.35 74.89 73.57 71.63 70.84
52.19 54.43 54.75 57.59 58.33 61.63 61.03 60.85 61.85 61.78 62.40 61.35 62.85 61.12 61.65 63.06 64.84 64.78 67.53 69.35 71.51 72.58 73.27 73.20 73.30 73.06 74.65 75.75 74.94 72.96 71.26 71.28

GFSFLT2_sfc_wetblb_015.txt.gz
Wetbulb
53.35 53.33 51.02 46.17 44.20 47.52 40.76 43.86 41.52 45.59 48.43 53.09 59.70 59.37 61.51 61.96 64.02 64.63 63.99 64.95 66.18 67.23 68.87 69.81 70.46 72.22 72.57 74.55 74.63 75.28 75.46 75.65
52.91 53.06 52.11 48.54 48.55 42.63 44.62 37.50 38.55 44.49 45.55 48.10 53.59 57.59 59.50 60.28 60.97 62.94 63.56 64.92 66.40 67.16 68.76 70.13 71.01 72.42 73.04 74.91 74.82 75.50 74.97 76.33
50.11 48.56 47.37 47.68 45.65 44.11 43.52 44.19 40.01 39.40 44.83 50.84 54.20 59.35 59.11 60.41 61.86 62.63 63.97 64.37 66.85 67.79 69.12 70.62 71.41 72.18 72.89 74.11 74.93 75.50 75.76 75.53
46.07 51.30 52.73 50.50 46.33 44.76 41.80 37.95 41.95 42.75 44.16 53.81 54.68 59.78 61.08 61.09 61.51 62.23 61.68 65.30 67.17 68.10 68.63 70.34 70.83 71.47 72.60 74.69 74.99 75.82 76.47 76.09
43.59 46.85 50.08 48.61 49.30 46.78 46.93 42.50 40.84 39.04 44.08 53.57 54.15 56.82 58.98 60.64 61.57 61.55 61.62 62.39 66.98 67.31 68.67 70.15 70.68 70.97 72.48 73.84 75.45 76.25 76.56 76.24
42.38 43.92 46.82 46.97 48.93 49.32 46.28 42.82 42.61 43.44 44.53 48.81 52.19 55.71 57.00 59.73 61.23 61.86 63.53 61.63 64.11 67.10 68.67 69.84 70.89 71.07 71.81 73.13 75.18 76.08 76.71 76.09
48.37 49.64 49.60 48.41 49.16 49.22 46.73 46.29 42.96 44.11 45.30 47.63 50.80 57.67 57.76 58.83 60.29 59.84 61.14 62.01 63.78 66.35 67.28 68.94 70.13 70.84 71.78 72.82 73.73 75.49 75.61 75.55
45.98 49.89 49.35 47.98 50.04 51.05 49.44 48.99 48.25 48.29 47.75 50.61 52.60 56.64 59.83 59.66 60.30 58.01 58.41 64.78 65.38 66.62 67.46 67.86 68.71 69.65 71.08 72.02 73.17 74.27 74.88 74.86
41.36 47.92 47.83 45.03 48.14 49.54 50.65 51.36 50.07 46.68 49.87 51.30 51.49 52.61 55.28 59.09 59.93 58.61 60.11 63.23 64.94 65.49 67.95 68.27 68.97 69.88 70.46 71.79 72.96 73.21 73.65 74.39
41.30 44.34 38.47 46.48 52.76 53.25 51.90 53.09 52.35 50.99 52.00 53.41 53.42 54.76 56.71 57.29 56.93 57.53 60.51 62.66 65.70 67.75 68.55 69.91 70.54 70.40 71.19 71.60 71.95 72.11 71.96 73.20
39.95 41.42 43.85 49.18 51.41 50.99 49.27 49.99 53.07 53.99 55.35 54.84 54.93 53.58 53.18 57.68 58.00 56.93 58.11 60.95 60.46 65.48 67.92 70.85 71.20 71.03 70.54 70.26 71.01 70.77 70.65 71.58
40.38 38.50 38.39 46.61 53.88 58.68 55.88 47.28 59.18 59.38 58.71 58.43 56.87 49.70 51.04 59.19 60.05 58.62 60.14 60.28 60.67 63.17 68.26 70.64 71.51 71.92 70.45 69.93 70.34 69.78 70.63 72.06
43.02 40.54 43.41 51.81 56.68 57.19 46.57 49.18 58.94 60.02 59.21 58.71 55.81 57.82 60.23 61.74 61.37 63.99 64.47 60.04 61.28 64.68 68.90 69.91 71.19 72.66 70.95 70.84 70.01 72.14 71.60 75.71
44.18 41.53 40.49 57.99 57.31 51.65 55.06 58.64 58.91 58.59 58.57 57.48 58.35 60.24 60.98 61.41 60.95 62.31 62.03 66.77 63.75 68.18 68.88 71.15 71.52 73.07 71.82 71.49 72.91 74.01 75.89 76.41
46.38 47.92 56.44 56.16 53.44 54.40 58.14 58.64 60.88 61.70 64.85 62.15 61.04 61.43 61.20 62.76 62.28 63.32 67.92 71.21 71.69 72.58 72.80 73.85 72.98 73.67 73.14 74.45 75.27 75.18 75.29 75.19
50.78 50.82 55.94 57.42 56.25 59.51 64.04 62.20 63.57 64.37 64.15 64.06 62.40 64.09 65.56 66.18 66.97 67.97 68.77 70.40 71.84 71.88 71.85 72.26 73.77 74.09 74.12 74.16 74.75 74.62 73.61 72.69
50.32 51.64 54.21 59.47 61.20 61.75 62.88 63.03 61.89 62.08 62.17 61.78 61.58 61.27 61.87 62.51 66.05 67.92 68.49 69.06 71.25 71.79 72.12 72.25 73.54 73.54 74.01 74.42 73.88 72.56 71.23 70.25
48.49 51.32 52.04 51.35 56.18 61.27 59.40 59.61 59.87 58.73 57.84 58.99 59.37 58.56 59.25 59.38 61.20 62.79 62.66 69.39 71.08 71.60 71.89 72.22 72.91 72.74 72.43 72.54 71.96 70.29 68.79 68.40
52.56 54.77 52.94 53.46 54.05 57.59 56.29 57.34 58.55 58.24 58.11 57.47 58.73 59.17 58.78 58.41 58.50 58.94 61.07 67.17 69.46 69.76 70.29 70.60 70.81 71.10 71.58 71.17 70.90 69.93 68.32 68.05

GFSFLT2_sfc_wetblb_018.txt.gz
Wetbulb
50.31 50.64 49.95 45.27 39.91 44.77 37.86 37.99 37.16 41.31 45.20 49.68 54.51 58.69 60.97 61.13 61.65 62.25 62.97 63.71 65.00 66.00 67.66 68.17 68.73 70.36 71.25 71.75 71.71 72.67 72.89 72.90
49.35 50.06 50.34 46.19 46.26 40.21 35.71 34.18 34.81 38.14 41.53 44.24 48.74 52.90 57.38 60.12 61.31 62.68 63.70 64.62 65.21 65.23 67.27 68.74 69.25 70.71 71.76 72.59 72.23 72.93 73.74 73.20
46.17 45.02 46.03 45.53 43.35 40.25 40.88 37.84 37.29 33.71 41.23 47.60 49.33 52.00 56.19 60.15 62.50 63.28 63.92 63.68 64.73 65.42 67.01 68.56 69.68 70.75 71.86 72.37 72.37 72.92 73.78 73.84
43.83 47.80 50.29 49.60 45.69 41.83 40.15 36.09 38.15 41.73 42.37 50.54 51.19 52.56 57.44 60.57 62.90 63.94 64.70 64.30 64.23 65.47 65.90 67.79 69.16 70.39 71.34 72.86 72.68 73.19 73.97 74.09
38.80 41.91 43.77 44.70 46.79 46.47 38.90 38.20 40.01 37.69 40.14 49.32 48.95 52.68 57.72 58.35 59.91 62.20 63.74 62.06 62.41 64.53 65.55 67.19 68.80 69.68 71.15 72.47 73.34 73.75 74.05 73.91
40.72 43.26 44.04 42.14 46.28 46.16 45.01 41.40 41.37 41.88 40.83 45.07 47.02 49.88 52.88 55.74 60.53 59.83 60.96 61.16 61.77 64.77 65.75 67.41 68.84 69.51 70.96 71.64 73.83 74.16 74.36 74.00
43.44 46.72 47.26 46.14 46.32 46.97 44.45 45.80 42.52 44.65 41.58 44.11 46.12 47.49 51.15 54.03 58.47 59.54 59.52 60.48 63.26 63.94 65.98 67.56 68.76 69.53 70.79 71.84 73.26 74.22 74.02 74.25
41.35 46.80 47.59 46.23 47.88 48.31 47.71 47.38 46.12 44.23 42.92 47.07 48.96 49.12 52.16 55.80 57.33 57.63 58.31 58.99 61.59 65.10 66.59 67.11 68.81 69.24 70.16 71.27 73.35 74.22 74.16 74.14
34.53 44.17 46.00 42.75 47.10 47.34 47.23 48.24 47.34 42.97 45.60 48.11 48.52 50.39 51.67 52.86 56.80 58.34 57.16 59.65 62.56 65.04 66.41 67.75 69.07 69.92 69.67 71.21 73.11 74.08 74.07 74.56
35.17 38.71 37.66 45.05 51.19 50.61 47.53 48.91 49.59 48.20 48.91 49.51 50.80 52.06 51.57 53.51 56.18 57.13 57.47 58.14 61.84 65.50 66.41 68.38 69.87 70.42 70.79 71.25 72.01 73.22 73.60 74.13
33.91 35.13 41.18 46.78 48.81 48.42 46.19 46.41 51.20 49.81 50.92 51.15 51.96 51.30 49.84 55.61 54.19 54.36 56.82 59.46 59.66 64.73 66.09 67.62 68.66 70.09 70.33 70.49 71.26 71.69 72.61 73.27
38.11 35.17 36.05 43.57 50.64 55.64 52.83 45.06 56.86 55.86 55.15 55.09 51.63 46.59 48.47 55.91 58.40 57.47 54.58 56.42 58.35 62.99 67.30 66.87 68.25 69.34 69.28 69.54 70.39 70.76 71.60 72.81
39.11 38.70 40.15 48.17 53.93 54.78 45.54 45.70 56.80 56.62 55.97 55.44 53.90 52.31 56.67 58.90 58.12 59.60 56.76 56.67 57.56 57.30 64.00 69.52 69.13 68.84 68.49 69.03 69.47 71.21 72.04 72.15
42.96 38.49 37.70 54.40 54.02 47.53 49.81 56.12 56.73 56.60 55.69 55.76 56.44 57.14 57.26 58.27 58.28 61.33 61.14 61.42 58.91 55.55 57.21 63.34 69.68 69.28 68.04 68.12 70.03 71.08 71.16 70.50
45.59 43.98 51.43 54.42 51.75 56.81 59.77 59.87 60.66 60.52 61.58 61.53 62.44 63.08 64.25 63.72 64.70 61.92 65.72 67.82 68.85 58.57 59.05 61.87 67.63 70.21 68.25 68.73 68.89 69.68 69.35 70.79
47.00 50.53 51.92 53.33 58.05 60.90 60.24 59.30 59.28 60.05 60.37 60.85 60.13 61.60 61.52 62.05 62.35 63.93 65.18 65.05 69.28 69.92 69.12 68.47 68.78 70.22 70.21 70.08 71.94 71.86 72.00 74.01
49.01 50.27 51.83 52.71 55.07 58.36 59.11 59.45 58.48 59.02 59.05 58.58 59.06 58.41 59.19 58.26 59.15 59.84 59.47 57.33 58.65 64.60 69.55 70.34 71.88 72.19 73.35 72.96 74.50 73.37 72.97 73.01
46.72 50.87 48.89 51.24 54.33 58.16 56.73 56.54 56.67 57.40 57.62 58.50 58.50 57.10 57.36 56.66 57.30 58.42 58.47 58.96 58.40 55.94 56.73 56.02 57.70 72.17 73.13 73.28 72.84 71.41 70.43 69.33
50.94 54.39 51.98 53.36 53.38 54.09 52.87 54.26 56.96 56.46 56.65 56.63 57.50 57.71 57.69 56.58 57.22 58.18 60.83 58.24 59.17 59.86 60.50 61.10 60.61 62.59 71.01 70.97 71.22 70.53 68.60 66.08

GFSFLT2_sfc_wetblb_021.txt.gz
Wetbulb
50.78 49.24 48.44 42.25 40.80 44.18 35.57 34.48 34.17 38.34 42.80 47.62 51.89 54.31 57.08 59.61 61.39 61.58 62.66 63.92 64.58 65.75 66.08 67.16 67.82 68.48 69.51 69.16 69.89 71.82 72.12 72.13
48.24 49.20 48.32 46.88 45.10 39.10 32.81 32.67 32.73 35.21 38.77 41.14 46.49 51.10 54.57 57.66 58.49 60.12 62.52 63.23 64.48 65.34 66.17 67.14 67.92 68.46 69.98 70.29 69.64 70.71 72.29 72.34
43.97 42.61 44.19 41.96 42.11 37.67 38.40 36.34 35.84 33.02 38.61 45.40 48.34 50.41 52.49 56.16 60.12 61.10 61.30 62.66 63.91 65.00 66.38 66.61 67.91 68.20 69.38 70.22 70.10 70.10 71.46 72.13
41.01 45.65 48.43 46.34 44.99 40.23 37.88 35.22 34.21 39.04 39.96 47.15 50.11 51.22 51.76 54.53 58.30 61.37 62.71 63.04 63.69 64.93 65.32 65.84 67.09 67.74 68.99 70.18 70.48 70.73 71.52 71.79
35.86 39.09 42.09 42.50 43.47 45.54 41.39 38.10 40.61 36.03 38.24 46.53 49.15 49.09 53.22 54.46 56.71 59.36 61.40 62.22 62.60 61.64 62.62 64.83 66.70 67.78 69.14 70.16 70.96 71.45 71.63 71.93
34.27 36.86 40.92 40.92 44.38 45.28 43.80 39.30 41.62 41.77 40.49 43.16 46.30 47.38 49.79 55.31 57.11 58.76 60.96 62.07 60.78 60.38 61.95 64.63 66.48 67.81 68.78 70.29 71.30 71.65 71.87 72.06
38.05 41.19 42.77 43.03 43.04 45.61 42.32 44.43 41.73 44.36 40.83 44.60 45.78 46.87 48.44 50.95 54.51 56.80 59.53 61.75 60.05 62.63 61.86 63.76 65.58 67.63 68.77 70.12 71.37 71.89 71.65 71.97
36.23 42.42 43.77 42.73 44.67 45.52 45.92 45.83 44.43 44.29 41.53 45.59 48.42 47.66 47.02 48.68 50.09 55.40 57.69 61.61 61.99 63.19 63.69 64.29 65.87 67.24 68.21 69.77 70.83 72.25 71.66 71.94
30.40 38.64 39.52 38.64 44.10 45.52 46.37 46.75 46.20 43.37 44.95 46.22 46.27 46.51 47.31 48.90 51.09 53.68 56.86 58.74 57.97 61.97 63.07 64.58 65.80 67.78 68.02 69.42 70.81 72.08 71.99 72.34
30.33 34.14 31.27 42.83 48.28 49.02 47.18 46.81 46.53 45.55 47.56 47.92 48.91 50.48 50.46 50.66 51.86 54.34 56.11 56.77 57.46 59.94 60.85 63.26 66.29 68.16 69.04 69.71 70.45 71.28 71.87 72.26
30.15 30.62 37.93 44.02 47.50 46.79 44.44 44.63 48.25 47.66 48.26 48.65 49.40 48.69 48.56 51.30 51.40 52.88 54.83 57.40 57.74 61.21 62.73 64.46 65.80 68.10 68.86 68.98 69.93 71.14 71.42 72.07
32.02 30.45 31.56 40.35 51.40 54.51 48.13 43.77 53.39 49.90 49.63 49.67 48.50 44.35 49.43 51.14 53.95 53.79 53.76 54.54 57.64 60.85 62.43 62.96 65.77 67.88 68.23 68.12 69.25 70.52 71.82 72.36
34.45 33.17 37.61 48.72 53.17 54.54 41.62 44.76 55.33 53.23 51.59 50.25 48.82 49.36 51.76 54.54 56.47 56.63 57.04 54.44 54.29 57.14 63.42 64.01 65.55 67.72 67.85 68.30 68.51 70.57 72.36 73.16
35.37 34.83 33.00 53.60 53.75 48.52 51.21 56.10 55.48 56.16 54.91 55.01 56.08 58.83 59.11 61.58 59.35 62.37 65.43 67.46 66.32 54.67 54.05 60.18 63.68 66.77 67.28 67.68 69.63 70.42 71.22 71.96
41.76 40.60 52.03 54.03 53.53 57.59 58.42 56.48 57.44 58.07 59.74 61.59 62.06 61.94 62.05 61.48 62.40 59.75 60.64 64.53 68.14 67.78 63.60 58.64 59.85 64.80 65.10 67.91 69.13 69.43 69.76 70.59
46.25 49.98 52.62 54.52 55.55 57.55 58.05 57.14 58.17 58.90 59.78 60.36 58.92 58.69 57.52 58.70 58.96 57.52 56.84 56.95 61.54 63.28 64.65 62.08 64.24 66.64 65.76 66.90 67.08 68.03 68.75 69.64
47.43 50.30 53.93 55.09 54.48 55.25 55.88 56.92 57.33 57.32 57.39 56.99 56.64 55.72 55.66 55.96 56.74 57.06 57.19 57.03 56.80 61.14 60.99 58.93 57.84 59.49 60.17 63.77 65.79 66.23 67.86 68.51
45.68 50.59 50.94 51.49 53.39 54.12 54.64 54.36 55.13 56.13 56.33 57.17 57.19 56.42 56.92 56.88 57.34 57.77 58.05 57.59 57.58 57.25 58.21 59.76 60.64 60.97 61.34 60.29 69.65 67.34 67.86 70.52
50.67 52.33 51.88 53.17 53.88 54.95 53.27 54.13 55.72 55.71 55.61 55.02 56.03 56.62 56.90 56.32 57.46 58.33 63.44 62.84 61.60 58.81 57.94 58.75 58.93 59.18 60.05 61.72 68.54 71.27 71.48 67.98

GFSFLT2_sfc_wetblb_024.txt.gz
Wetbulb
47.94 47.09 48.06 40.65 40.35 41.61 34.05 32.60 32.39 35.92 40.41 46.65 50.37 50.48 55.60 58.09 59.27 59.91 62.13 64.30 65.47 66.70 66.95 66.68 67.60 68.00 69.02 69.59 69.69 70.21 70.45 70.55
48.47 48.44 47.14 43.40 43.64 37.91 32.40 30.46 28.78 33.96 36.38 40.66 45.62 49.64 52.17 55.16 57.79 59.87 61.32 62.86 64.45 65.72 66.53 67.21 67.55 68.52 69.37 69.81 69.44 70.33 70.86 71.03
43.41 43.36 44.96 40.58 39.46 36.33 38.72 34.32 31.84 29.58 36.12 43.23 46.78 49.07 50.38 53.78 58.00 59.71 60.94 61.93 63.48 64.85 66.14 66.72 67.62 67.94 68.75 69.42 69.52 69.91 71.14 71.43
39.02 42.62 47.05 48.55 44.06 38.62 37.92 34.56 32.77 33.48 38.29 46.24 47.05 49.89 51.08 52.59 56.89 59.56 60.52 61.78 63.37 64.33 65.23 65.97 66.15 67.35 67.87 69.28 69.27 69.82 71.35 71.70
33.75 39.35 41.68 39.86 44.78 41.17 43.57 36.84 37.90 35.34 38.95 47.75 46.92 48.07 50.01 51.13 53.31 56.43 59.69 60.85 61.64 62.97 63.88 64.87 65.64 66.62 67.44 68.61 69.62 70.07 70.36 71.61
30.57 33.96 38.27 37.54 40.95 42.09 42.72 40.10 41.07 40.62 42.13 43.56 46.07 47.05 48.85 50.64 53.53 54.81 57.07 59.15 60.73 61.29 63.25 64.59 65.40 66.34 66.87 68.05 69.58 70.28 70.27 70.48
35.92 39.26 40.50 40.26 40.67 41.73 39.97 42.84 40.19 43.56 43.73 45.24 46.10 47.02 49.18 50.00 54.06 55.65 57.58 59.26 59.19 60.67 61.79 62.70 64.47 66.15 67.07 68.07 69.19 70.32 70.05 69.98
34.11 40.09 40.31 38.49 41.63 43.01 43.36 42.56 42.48 44.41 42.31 45.76 48.06 47.95 48.47 49.25 50.75 52.08 55.30 58.34 60.45 61.12 61.90 62.37 64.27 65.74 67.05 67.94 69.13 70.30 70.13 70.04
29.38 36.63 37.73 36.01 41.43 42.91 43.03 44.00 44.05 41.14 44.94 47.63 45.94 46.92 48.19 49.69 49.99 50.20 52.09 54.58 58.76 60.90 62.03 62.94 64.26 66.16 66.79 67.76 69.65 70.01 70.25 70.67
29.62 32.59 28.23 38.46 44.54 45.97 45.06 45.97 45.96 46.71 46.74 48.47 49.65 50.71 50.54 50.68 51.37 51.00 52.21 55.04 57.64 60.30 62.45 63.87 64.69 65.43 66.76 68.20 69.34 70.17 70.13 70.54
28.28 29.11 36.12 39.66 46.84 48.86 46.56 44.55 47.67 47.19 48.34 48.14 50.20 50.09 49.54 50.84 50.71 52.41 52.90 54.79 57.09 59.25 60.83 62.71 62.72 64.51 66.31 67.43 69.17 69.70 70.36 70.54
29.45 28.67 28.69 38.91 50.63 54.14 52.82 41.58 48.86 49.17 48.94 49.18 47.45 43.90 48.34 52.73 52.28 52.32 53.23 54.56 56.01 57.32 59.60 60.23 62.19 65.35 66.36 66.89 68.13 68.60 70.60 71.26
30.16 30.81 35.02 42.93 52.45 55.21 40.80 43.83 55.48 56.86 54.74 49.93 47.93 51.39 53.65 55.54 57.11 60.19 58.57 58.86 56.57 59.23 60.40 61.80 63.35 65.37 66.10 66.85 67.41 69.29 70.76 71.94
30.62 30.29 29.75 51.56 52.93 50.60 51.94 56.19 56.68 57.56 56.77 49.02 53.79 59.85 62.00 62.68 63.18 65.02 66.34 67.92 66.91 58.64 57.56 57.58 63.66 65.52 66.18 66.30 68.42 69.80 70.99 71.55
34.04 34.77 43.98 52.99 53.23 55.56 57.22 55.14 56.48 56.80 58.86 60.88 60.96 60.19 60.31 58.94 57.86 58.46 62.26 64.78 67.54 65.80 63.43 62.95 65.48 64.71 64.17 65.24 67.99 69.11 69.89 70.97
38.84 44.14 46.10 53.26 54.96 55.69 56.01 55.88 57.45 58.05 57.93 58.35 57.08 57.18 56.35 56.53 56.45 56.61 56.99 57.25 63.64 63.33 61.32 60.22 62.65 63.98 63.58 65.78 69.43 67.91 68.49 69.38
39.94 43.49 51.29 53.44 52.65 53.49 55.18 56.72 56.88 57.45 57.22 56.61 57.54 57.09 57.80 58.24 58.88 59.90 60.27 59.61 58.58 58.88 59.93 59.57 60.95 61.73 62.40 62.82 68.15 69.01 66.50 68.19
39.76 45.26 48.85 50.54 52.20 54.65 54.00 54.34 56.23 56.85 57.34 57.31 57.76 57.36 58.84 58.06 60.04 61.94 60.73 60.73 60.34 61.43 61.65 61.15 61.05 61.50 61.75 62.18 66.09 70.77 68.62 66.96
45.80 49.65 50.96 52.36 53.90 53.98 54.22 55.38 57.11 56.80 57.31 57.30 57.65 58.95 59.72 59.23 60.45 59.96 61.89 62.45 61.03 60.02 62.59 62.45 62.75 63.58 64.19 63.95 62.81 68.60 69.89 68.91

GFSFLT2_sfc_wetblb_027.txt.gz
Wetbulb
51.14 51.74 51.30 47.78 46.01 49.86 44.06 43.38 42.63 45.57 48.94 52.48 54.85 55.86 58.86 61.35 62.69 65.58 67.58 68.67 69.21 70.93 71.90 72.07 72.54 72.52 72.92 73.26 73.82 74.30 74.48 75.03
50.56 52.12 51.69 49.52 51.19 43.77 45.33 38.90 38.21 43.45 44.73 47.17 52.92 54.47 56.53 58.59 61.06 63.19 65.12 67.79 69.07 70.51 71.24 72.02 72.26 72.98 73.18 73.78 73.74 74.49 74.91 74.85
50.30 48.32 47.73 46.88 46.63 48.00 47.79 45.64 41.15 39.92 43.78 52.90 55.04 57.84 57.46 58.47 60.36 62.36 63.99 65.51 67.22 69.90 71.47 71.98 71.99 72.56 72.75 73.21 73.72 74.06 74.52 75.01
46.31 51.55 52.61 50.92 49.11 48.70 44.15 43.20 44.91 44.67 44.68 53.10 55.36 56.98 58.35 58.69 60.23 62.71 65.20 66.47 67.03 68.17 69.59 70.48 71.74 71.81 72.30 72.90 73.38 74.18 74.49 74.76
44.43 47.97 49.14 48.74 50.52 49.86 49.78 49.25 44.86 42.14 45.04 54.28 54.87 54.68 56.93 57.50 59.44 61.52 63.67 65.63 67.10 67.49 68.74 69.84 70.96 71.69 71.84 72.41 72.67 73.42 74.51 74.58
42.87 44.79 44.97 43.85 45.91 49.56 48.52 45.64 45.77 46.30 47.87 51.43 53.17 53.88 56.34 58.16 59.60 60.63 62.53 65.78 66.91 67.09 69.15 69.81 70.60 71.23 71.73 72.17 72.94 73.51 73.66 74.22
41.92 42.61 43.27 43.53 44.08 45.30 45.02 47.96 46.38 48.19 48.94 51.52 53.83 55.45 57.24 58.52 59.87 59.79 61.40 62.92 64.77 66.48 68.83 70.16 70.57 71.14 71.46 72.24 73.15 73.59 73.70 73.74
38.98 42.12 43.35 41.94 44.45 44.91 45.66 46.35 46.54 47.29 47.76 53.92 54.28 57.27 57.66 58.01 59.50 60.39 60.02 62.47 65.33 67.77 68.29 69.01 70.30 70.63 71.28 71.81 72.38 73.57 73.32 72.99
35.31 40.50 40.60 39.40 43.84 45.41 46.57 48.14 48.01 45.22 49.84 53.36 53.26 54.46 55.88 58.18 59.88 60.94 61.49 62.64 64.01 67.08 68.32 69.29 69.46 71.04 70.58 71.48 72.35 73.00 73.26 73.59
35.30 37.74 31.57 44.40 48.99 48.37 47.87 49.56 50.36 50.30 51.58 53.41 55.22 57.42 59.03 59.90 59.85 60.94 61.85 62.39 64.27 63.03 66.61 70.05 69.48 69.47 71.62 72.24 72.64 72.76 73.34 74.00
33.10 35.02 39.67 41.95 45.77 50.42 50.17 49.31 55.10 53.36 52.73 53.52 55.03 56.48 58.00 59.42 59.97 60.98 62.49 63.46 63.98 63.40 65.25 70.34 70.26 71.25 71.91 72.05 72.62 72.89 73.12 73.69
35.30 31.23 31.76 43.43 48.01 51.95 55.20 45.14 57.11 57.98 57.64 55.42 54.49 51.23 54.84 61.84 60.29 59.67 60.34 61.78 63.00 63.77 65.72 66.83 69.90 70.07 71.06 71.11 72.07 72.40 73.41 73.75
32.90 32.74 37.56 45.53 49.87 57.53 45.21 47.94 58.54 59.40 59.53 59.91 58.17 56.43 61.78 61.75 61.13 62.99 63.60 62.35 62.79 63.55 65.10 67.42 68.40 69.21 70.62 71.60 71.78 73.25 74.10 74.57
33.35 31.42 29.43 47.17 50.71 45.38 53.90 58.94 59.71 60.63 59.92 58.75 61.71 62.72 59.69 64.62 67.66 69.98 70.37 69.19 62.56 63.55 66.31 68.89 69.92 70.05 71.30 72.46 73.60 74.31 74.61 75.10
37.37 37.27 45.94 49.69 50.63 57.25 59.96 59.30 59.95 60.11 60.12 59.19 61.11 63.07 63.62 66.35 67.99 69.40 70.45 70.29 69.67 68.84 69.35 70.04 71.00 72.02 71.31 71.85 73.15 73.88 74.52 75.31
38.77 41.37 44.70 47.10 51.07 52.48 58.82 59.62 60.78 60.47 58.66 59.71 62.95 64.25 63.66 63.54 63.91 65.98 68.01 68.71 68.30 67.68 67.70 67.99 70.47 71.78 72.30 73.66 74.15 73.83 74.34 74.90
40.16 43.45 45.56 47.94 50.28 51.17 55.19 60.21 59.81 60.21 60.96 61.13 61.89 62.01 62.98 63.24 63.71 63.70 64.16 65.20 66.48 66.68 66.78 66.66 68.14 68.14 68.12 68.68 73.08 74.48 73.32 73.23
36.34 44.32 45.53 48.86 51.22 55.14 56.70 59.06 59.87 59.25 60.85 62.04 62.23 59.58 59.74 62.44 64.46 64.64 64.39 65.76 65.71 65.77 65.93 66.17 66.87 67.25 67.62 68.30 67.87 69.99 71.37 72.35
41.09 46.59 47.69 51.35 53.10 57.07 57.91 59.21 59.90 60.44 60.15 60.77 60.69 61.43 60.95 61.03 61.78 60.84 64.28 64.79 65.27 66.50 67.60 67.89 67.85 67.88 68.96 69.21 68.33 68.25 68.22 69.86

GFSFLT2_sfc_wetblb_030.txt.gz
Wetbulb
53.45 54.06 53.77 51.20 49.13 52.04 47.26 48.66 45.98 48.70 51.14 54.70 57.46 58.50 59.66 60.45 62.14 63.23 67.90 70.55 71.43 72.44 73.29 73.96 74.70 75.87 76.50 77.04 77.82 77.59 76.82 78.93
52.33 53.99 53.86 52.95 53.74 47.42 48.30 43.15 42.39 46.40 48.56 49.61 54.48 56.25 58.81 59.65 61.45 63.67 67.41 70.21 71.44 72.38 73.04 74.16 74.83 75.45 76.43 77.42 77.43 78.06 77.62 77.97
52.56 50.49 49.91 50.51 49.96 50.73 50.49 48.61 44.99 44.25 48.15 55.62 55.77 57.83 58.05 59.81 62.19 63.69 66.39 69.47 70.58 71.72 72.84 73.85 74.85 75.36 75.47 76.00 77.13 77.17 77.84 78.35
49.64 53.31 53.99 53.04 51.42 51.37 46.88 46.85 48.39 48.49 49.09 55.34 56.00 57.23 59.27 59.96 61.92 63.99 66.12 67.29 68.68 70.44 71.99 72.82 73.73 74.61 75.25 75.59 75.44 76.80 77.69 78.48
48.67 51.58 53.46 51.37 52.15 52.86 52.11 51.98 49.40 46.43 49.29 56.65 57.24 57.33 59.48 60.08 61.19 62.92 64.43 66.37 68.15 68.76 69.73 71.74 72.95 73.92 74.09 75.20 75.16 75.92 77.43 76.81
46.51 49.20 51.76 49.80 51.20 52.22 51.47 48.71 49.11 50.09 51.37 54.12 54.81 56.15 57.31 58.85 60.50 61.46 63.87 65.59 66.67 67.84 69.16 70.70 72.95 75.34 75.76 74.21 75.13 75.41 75.87 76.07
50.43 47.72 47.82 50.53 50.62 51.47 50.86 51.63 49.32 51.41 51.96 54.67 56.43 57.11 58.31 59.65 60.51 61.09 61.91 62.92 65.75 68.84 70.23 72.30 73.15 74.99 76.01 75.09 75.93 75.94 77.03 76.03
45.21 47.35 46.91 46.32 48.97 49.92 51.02 52.06 52.45 52.49 52.42 57.25 58.52 58.35 58.71 59.44 60.05 60.03 60.96 61.65 62.90 66.54 69.18 71.12 72.47 73.59 74.55 76.29 75.83 76.02 77.24 76.73
42.77 46.79 45.96 43.49 47.97 49.13 50.44 52.00 51.80 49.42 53.77 56.81 56.26 57.04 58.23 58.79 59.44 59.85 61.49 62.71 64.17 65.82 68.01 70.99 72.35 73.61 73.39 75.96 75.96 76.42 76.88 77.76
41.77 44.61 36.65 48.33 53.20 52.32 50.63 51.97 53.54 53.57 54.68 56.14 56.94 58.39 59.47 60.30 60.29 60.61 61.34 62.68 64.18 64.27 66.01 69.51 71.26 70.08 73.64 74.16 76.44 76.56 76.94 77.39
38.63 39.91 44.55 47.11 48.71 48.94 49.48 50.56 54.12 53.99 55.63 56.29 57.39 57.89 58.07 60.01 60.90 62.03 63.15 64.09 64.81 65.22 66.27 68.69 68.81 70.88 71.57 73.65 74.53 75.70 76.51 76.85
40.29 36.91 36.80 46.66 51.04 52.75 53.86 47.39 55.91 56.99 58.14 58.81 61.11 54.16 56.22 60.94 61.37 61.95 63.56 64.31 64.69 65.43 65.86 66.91 69.80 70.62 71.55 72.56 73.32 74.64 75.99 76.76
37.51 36.94 42.13 49.05 51.79 56.78 45.39 52.56 59.97 60.12 60.63 61.46 60.97 62.59 64.87 65.95 66.13 66.29 66.29 66.03 67.03 67.45 66.86 68.70 71.36 72.06 72.18 72.95 72.84 75.36 75.86 75.93
37.59 35.93 34.20 48.15 48.58 45.81 54.20 58.19 59.27 60.40 60.80 61.11 62.92 63.91 65.84 67.11 67.61 67.16 67.03 69.75 71.68 68.94 67.13 69.01 71.93 71.39 72.24 75.26 75.99 77.00 77.28 76.69
40.00 40.04 47.90 50.31 49.31 52.85 54.46 53.71 56.03 59.72 62.36 62.97 62.74 63.64 65.85 67.10 68.28 65.99 68.55 71.09 72.39 67.39 68.96 72.56 74.03 73.70 72.88 75.69 76.74 76.63 76.73 77.48
41.59 43.93 46.56 49.03 51.13 52.26 52.64 53.05 55.49 56.62 60.70 63.10 62.88 64.60 66.44 68.12 68.01 69.20 71.33 72.63 72.84 71.37 70.84 72.34 74.60 75.18 76.03 75.97 76.31 76.07 75.59 76.16
42.60 46.03 47.24 47.60 48.87 50.48 51.98 53.08 53.17 54.98 59.37 62.19 63.49 65.10 67.40 67.39 67.96 69.75 71.30 71.24 72.00 71.60 71.50 71.50 72.71 73.01 73.91 75.16 77.15 75.39 75.95 76.20
39.85 46.72 46.91 47.73 50.52 51.90 51.08 53.34 54.60 57.18 58.24 62.08 63.29 63.41 65.33 66.91 68.83 68.59 68.66 69.25 69.44 69.56 69.90 70.20 70.44 70.77 71.43 71.95 72.11 73.38 74.14 74.24
45.51 48.77 48.70 50.47 51.78 52.27 53.12 55.08 56.80 58.86 60.70 61.95 61.79 62.57 63.23 64.03 64.19 62.79 68.10 68.98 69.48 69.84 70.71 71.25 70.81 70.32 69.38 70.34 72.18 72.13 71.73 72.36

GFSFLT2_sfc_wetblb_033.txt.gz
Wetbulb
54.77 55.06 55.10 52.51 50.11 53.14 49.98 50.52 47.86 49.53 52.26 55.69 58.41 59.10 60.68 62.05 63.36 64.68 66.98 69.34 70.76 72.56 73.46 74.79 74.84 76.12 76.58 77.63 78.53 79.21 78.93 79.57
54.17 55.43 54.90 54.39 54.56 48.69 49.78 45.77 45.06 48.81 50.69 50.68 55.75 57.21 59.42 60.85 62.16 63.71 65.93 68.60 70.63 72.02 73.21 74.97 75.04 76.28 77.23 77.81 78.22 78.93 78.75 79.36
54.87 51.92 51.27 51.62 51.71 52.03 51.57 50.09 46.96 46.43 49.51 56.70 57.49 58.83 58.98 60.66 62.07 63.31 64.32 67.41 70.04 72.05 73.20 74.50 75.18 75.40 76.47 77.41 78.41 78.88 79.19 79.32
51.76 54.44 55.46 54.53 52.79 53.24 48.34 49.12 50.03 50.60 50.74 57.22 57.96 58.14 60.03 60.58 62.39 63.37 65.19 67.09 70.11 72.05 72.50 73.33 74.41 74.97 75.62 76.65 76.81 78.89 79.40 79.37
51.23 52.81 54.23 52.38 53.18 54.09 53.58 53.04 50.93 47.89 50.24 58.08 58.53 58.69 60.36 60.51 62.30 64.16 65.83 67.44 69.92 70.91 71.61 72.41 73.33 75.46 75.29 76.78 76.09 76.77 78.51 78.72
49.37 51.65 52.93 50.78 52.15 53.15 53.18 50.33 50.70 51.33 52.75 55.64 57.12 58.43 60.08 61.14 62.56 63.57 64.74 65.59 67.90 68.67 69.91 72.24 74.02 76.47 77.14 76.43 76.74 76.85 77.20 77.70
52.65 53.85 53.35 52.68 51.74 52.25 51.66 52.94 50.61 53.04 53.52 56.24 58.06 58.48 59.61 61.17 62.24 62.81 63.82 64.68 66.16 67.55 70.01 73.15 75.36 77.15 77.73 76.50 77.85 77.47 78.10 78.00
50.39 53.10 51.59 50.35 53.08 52.87 52.83 52.98 53.39 53.91 54.24 58.94 59.83 60.19 59.74 59.97 60.45 60.69 61.87 62.68 63.89 65.22 68.48 70.55 73.31 76.20 76.96 77.74 77.54 78.05 78.58 78.06
46.03 51.25 50.45 47.09 51.42 53.06 53.95 54.70 54.28 52.09 56.03 59.25 58.18 58.44 59.53 60.25 60.87 61.11 61.88 62.53 63.59 64.55 66.06 69.73 71.12 74.41 74.97 78.05 78.42 77.61 78.06 78.95
44.70 48.57 41.73 51.47 55.72 54.72 53.61 54.73 56.03 56.35 57.66 58.42 59.00 60.29 60.94 61.51 61.33 61.76 62.46 63.13 63.97 63.86 65.72 68.45 68.49 70.54 74.21 74.87 78.85 78.37 78.02 78.18
42.20 44.78 48.55 50.52 52.66 53.31 52.42 52.28 56.10 55.96 57.07 57.40 58.50 59.07 59.58 61.48 61.93 62.60 63.43 63.81 64.44 64.85 65.55 70.27 67.94 70.13 72.17 74.36 76.96 78.08 78.15 78.19
43.71 41.09 41.32 49.84 53.67 54.43 55.55 49.15 56.96 56.94 57.08 56.92 59.11 55.51 58.90 65.68 66.53 65.38 64.15 64.61 65.19 65.69 66.17 66.63 69.47 68.22 68.71 70.01 74.08 77.16 77.49 78.77
40.65 40.89 45.90 52.13 54.69 56.55 47.13 53.19 59.40 58.95 59.00 60.18 59.82 62.72 65.65 66.60 67.00 68.75 69.46 69.57 69.58 69.44 68.66 69.69 70.23 69.43 73.55 73.17 73.02 76.32 78.03 79.22
41.22 39.46 38.42 52.31 51.13 49.34 54.74 58.72 58.39 59.43 60.74 61.39 63.29 64.01 64.80 65.58 67.03 68.37 69.60 69.92 69.60 69.55 71.86 73.09 71.66 72.49 76.07 76.08 77.58 79.44 79.12 78.73
42.89 43.11 50.84 52.55 52.04 54.15 54.20 53.81 55.24 56.31 57.61 58.65 59.61 62.67 64.46 65.18 67.54 69.45 70.25 69.87 68.03 69.02 73.04 71.43 73.06 73.60 75.59 78.37 80.57 80.30 79.98 80.01
43.45 46.66 48.39 49.94 51.87 52.89 53.86 53.61 54.71 55.62 56.01 56.19 56.18 60.72 63.67 65.68 68.30 69.72 70.31 71.35 72.99 73.10 72.48 71.70 74.71 75.87 75.86 78.37 78.73 79.29 79.74 80.17
44.02 46.50 48.89 49.93 51.18 51.85 52.46 53.68 53.52 54.10 55.40 56.01 56.77 58.75 63.36 66.06 69.36 69.54 71.32 72.70 72.76 73.43 74.23 73.81 75.63 76.46 77.32 77.66 77.43 76.49 76.87 76.81
41.10 48.12 48.12 49.49 52.07 53.74 52.30 51.71 52.72 53.60 54.35 58.05 59.20 60.75 64.61 65.10 68.68 70.56 70.66 71.24 72.25 72.34 71.98 72.25 72.73 72.89 73.67 74.20 76.62 77.44 76.46 76.38
45.16 49.29 49.94 50.58 52.10 53.21 52.57 52.85 53.97 54.90 56.70 56.99 60.04 62.15 65.37 64.43 68.04 66.32 69.86 70.03 70.79 71.43 71.97 72.44 72.08 70.40 71.53 73.90 74.31 74.20 74.18 74.41

GFSFLT2_sfc_wetblb_036.txt.gz
Wetbulb
55.22 54.63 54.12 51.36 48.52 51.97 47.82 48.83 45.91 47.91 50.79 54.33 58.04 58.38 60.12 60.78 63.45 65.23 66.80 68.42 71.03 72.87 73.28 72.68 72.53 73.37 74.09 75.08 76.20 76.97 76.55 77.73
53.96 55.22 54.22 52.86 54.22 47.68 48.93 43.80 43.96 47.47 50.60 50.26 54.68 57.25 59.25 60.68 61.33 64.29 66.27 67.98 70.63 72.29 73.56 73.52 73.34 73.77 74.46 75.71 75.85 77.01 77.52 77.35
54.02 51.65 50.81 51.18 51.28 50.91 50.51 49.08 45.59 45.82 48.29 57.97 57.45 58.48 59.58 60.93 62.34 64.07 65.93 67.64 69.86 72.32 73.50 74.52 74.20 74.30 74.32 74.85 76.24 76.82 77.38 77.59
51.23 55.16 55.07 53.43 52.02 52.81 47.77 47.98 49.67 49.73 49.81 57.52 59.51 60.30 60.57 60.71 62.56 64.43 66.35 68.54 69.78 71.81 73.22 74.15 74.33 74.36 74.55 74.97 75.79 76.85 77.95 77.77
48.65 53.17 54.56 52.14 52.53 53.02 53.18 51.73 50.33 47.54 49.31 58.34 59.12 59.23 61.93 61.10 63.41 64.61 67.23 67.57 69.24 71.14 72.14 73.58 74.26 74.67 75.03 75.24 75.46 77.25 77.94 77.59
47.32 50.55 54.16 51.30 51.48 52.82 52.06 49.28 50.02 50.31 52.34 55.40 57.15 58.09 60.47 62.56 64.30 65.05 67.28 67.95 69.10 70.64 71.98 73.21 74.32 74.92 75.21 75.52 76.09 76.37 77.35 77.59
52.05 53.88 53.85 51.79 51.21 51.92 51.65 53.22 50.44 52.23 52.85 56.10 59.00 59.57 61.32 62.56 64.95 65.73 67.18 68.50 70.42 70.58 72.05 73.02 74.14 75.03 75.69 76.09 76.17 76.47 76.22 76.82
49.62 52.54 53.09 51.87 52.20 52.14 52.35 52.32 53.03 53.42 53.73 58.44 60.36 62.00 61.78 63.04 63.35 64.46 65.37 66.17 68.44 70.22 72.55 75.45 74.61 75.56 75.27 75.88 76.49 76.80 76.05 76.34
44.20 50.72 51.36 49.08 52.35 52.69 53.03 53.85 53.48 52.02 56.59 59.53 59.41 60.18 61.12 61.70 61.92 61.96 61.86 63.35 65.44 68.63 70.74 72.41 73.69 77.17 76.51 76.33 77.38 77.27 76.28 77.06
43.78 47.74 41.64 52.25 56.61 55.54 54.32 54.73 55.45 56.38 58.30 60.18 61.72 62.34 62.49 62.69 61.98 63.18 63.76 65.88 68.21 64.92 67.80 72.98 70.34 70.56 75.28 77.73 77.32 76.88 77.74 77.24
42.28 44.00 49.12 51.82 54.23 54.02 53.16 53.50 56.77 56.83 58.34 58.88 59.50 59.94 60.15 61.47 62.20 62.95 65.43 66.82 67.42 65.90 67.32 74.29 71.81 72.45 73.47 74.44 77.41 77.35 76.53 77.53
43.43 40.84 41.31 51.04 55.10 56.73 56.63 49.63 57.94 57.35 57.05 57.21 58.19 53.76 60.82 66.06 66.68 67.17 68.47 70.14 70.99 70.91 71.10 69.70 75.50 72.42 74.92 74.11 75.45 76.40 76.59 76.76
40.83 40.46 46.77 51.06 53.53 56.13 48.30 51.08 59.21 59.77 60.00 60.15 58.88 62.68 64.89 65.91 66.27 67.70 69.37 70.48 72.03 71.87 71.26 75.35 76.01 74.84 76.67 74.33 73.73 76.01 77.49 77.84
41.17 39.84 38.94 52.83 52.62 49.31 54.86 57.00 56.46 56.97 57.41 57.98 59.35 60.92 63.41 64.72 66.22 67.62 69.37 70.75 71.07 71.66 72.34 73.08 78.34 77.68 76.09 77.35 78.82 80.68 78.99 77.83
43.07 43.25 53.64 54.05 52.33 54.09 54.18 53.87 55.24 54.90 55.65 56.25 55.94 56.64 58.65 62.02 66.07 68.11 70.47 71.78 71.84 71.09 72.52 73.56 78.60 79.07 75.93 80.17 82.01 81.40 81.24 79.96
43.19 46.48 48.39 50.27 52.06 52.90 53.40 52.86 54.13 54.78 54.42 54.65 54.94 56.05 57.10 59.96 63.78 67.29 70.52 71.85 74.14 74.08 74.70 76.56 77.92 77.39 78.98 79.32 80.50 81.26 81.54 81.35
43.25 46.48 49.35 50.15 50.93 51.97 52.41 53.21 52.93 53.48 53.76 53.84 54.43 54.93 58.35 60.54 64.97 65.56 67.89 72.21 73.36 74.07 75.38 76.01 77.38 77.00 77.21 78.53 80.24 79.12 79.55 79.64
40.69 47.16 47.85 49.92 51.79 53.23 52.21 52.07 53.60 53.54 53.42 54.70 55.53 57.10 59.43 60.64 65.55 65.89 68.45 71.46 72.78 73.64 73.47 73.31 73.39 73.68 74.68 75.85 77.51 79.26 78.35 77.34
42.69 47.26 47.50 49.46 51.69 52.35 52.09 52.89 53.98 54.38 54.85 54.70 55.85 57.12 58.73 59.58 65.72 64.60 67.56 70.67 71.20 72.23 71.56 72.89 72.75 71.32 72.43 75.21 75.84 76.54 77.06 78.41

GFSFLT2_sfc_wetblb_042.txt.gz
Wetbulb
52.66 54.59 52.87 48.19 45.38 45.80 36.73 35.14 35.23 38.67 41.28 46.18 49.97 50.18 53.74 61.18 63.72 63.29 65.33 66.72 66.91 67.94 68.20 68.58 69.10 69.91 70.16 69.71 69.83 71.47 72.08 72.04
51.24 52.72 53.53 48.06 47.80 39.95 36.04 32.22 30.90 37.51 38.57 40.86 45.82 48.05 49.05 52.31 61.57 63.27 66.41 66.88 67.16 67.76 68.38 68.81 69.52 70.31 70.85 70.67 69.97 70.80 72.31 72.03
44.51 45.60 47.89 46.57 45.40 41.61 41.99 36.77 33.75 32.76 39.65 46.27 46.63 48.81 49.14 50.38 60.52 64.53 66.02 66.85 67.24 67.69 68.73 68.84 69.39 70.12 70.73 70.89 70.59 70.94 71.90 72.75
40.70 47.16 48.35 52.41 44.51 43.49 41.01 35.56 36.27 36.89 41.73 50.40 50.16 51.28 51.59 52.15 53.86 64.76 66.93 67.36 67.63 67.72 68.33 68.38 68.66 69.74 70.09 71.54 71.21 71.61 72.36 72.86
36.76 40.10 43.50 42.86 48.22 43.78 41.13 39.88 37.45 39.10 41.81 50.18 50.59 53.01 53.17 54.09 53.09 58.16 65.56 67.10 67.52 67.78 67.79 68.02 68.27 69.22 70.60 71.38 72.08 72.38 72.63 72.55
30.70 35.70 41.32 41.40 45.45 47.71 43.13 39.87 40.74 41.72 42.87 47.44 49.49 51.95 51.64 50.68 53.73 58.29 64.24 66.41 67.68 67.67 67.69 68.16 68.30 68.93 69.99 70.92 72.89 73.03 72.98 72.83
34.01 38.01 41.17 43.29 46.12 46.83 43.81 45.78 42.22 43.99 43.82 47.01 48.76 53.35 52.08 53.42 55.23 58.25 63.05 65.61 67.50 67.65 67.84 68.17 68.23 68.62 69.74 70.67 71.97 73.07 72.97 73.00
32.42 42.62 45.11 45.43 49.22 49.28 46.82 46.87 45.21 44.54 44.89 48.69 51.28 54.80 54.71 55.31 57.62 58.24 60.96 65.62 67.80 68.29 68.38 68.39 68.43 68.52 69.43 70.09 71.10 72.62 72.65 72.94
29.62 41.12 45.46 41.80 45.13 48.46 48.04 47.73 47.18 43.14 46.43 49.79 54.31 57.55 57.11 53.55 55.84 55.55 58.58 64.27 67.63 68.42 68.79 69.31 69.28 69.46 69.01 69.94 71.00 72.01 72.28 72.79
30.04 37.24 35.05 44.51 48.57 48.53 48.33 48.53 49.50 51.60 51.20 57.08 58.30 59.29 60.06 61.10 60.85 61.65 62.14 60.96 58.84 61.64 65.71 68.34 69.64 70.33 70.29 70.45 70.48 70.66 71.33 72.62
29.42 36.00 41.54 43.75 44.94 44.50 43.20 44.36 48.76 49.50 57.13 58.63 59.32 59.67 59.02 61.83 63.19 62.03 62.32 62.70 62.97 63.86 63.64 62.87 69.04 71.37 71.15 70.86 70.84 70.58 70.50 71.07
31.12 33.35 34.21 38.82 45.56 51.01 50.89 38.52 48.01 49.36 49.21 53.58 56.37 52.08 53.73 59.59 63.07 63.33 66.32 64.76 63.80 63.92 63.93 63.83 64.91 64.37 70.82 70.95 71.13 70.61 71.11 71.62
33.92 34.37 38.87 43.08 46.46 52.30 39.29 41.03 48.40 48.28 48.17 48.08 48.24 48.83 51.42 58.38 61.53 62.14 63.57 67.22 67.81 67.19 64.54 63.52 64.57 64.87 67.57 69.60 71.04 72.36 72.69 72.45
33.94 34.55 32.48 45.68 45.30 39.99 43.00 47.86 48.37 47.47 47.26 46.77 48.32 51.75 53.64 55.13 56.31 61.29 61.56 65.84 68.18 70.46 70.92 69.76 65.49 65.26 63.37 65.52 68.57 71.03 70.88 72.13
35.13 36.75 42.89 46.19 47.12 47.42 46.88 46.22 46.41 47.39 46.93 47.42 47.98 50.08 52.10 53.03 53.91 60.44 61.15 62.80 66.01 67.92 69.91 71.15 71.33 70.93 70.14 70.60 70.48 70.97 70.91 71.36
33.34 39.29 40.06 43.93 48.17 46.89 45.72 44.75 46.23 47.63 48.86 47.98 47.70 50.59 51.17 51.92 52.15 58.00 61.04 61.76 64.06 66.34 66.83 68.12 69.82 70.12 69.62 70.15 71.26 72.15 67.96 71.78
34.33 36.86 39.64 43.90 44.92 44.13 45.18 45.88 46.20 46.92 48.66 49.56 48.87 50.24 49.91 49.94 50.39 52.06 58.47 61.21 63.23 64.15 65.28 66.44 68.62 67.91 67.92 68.10 69.12 69.58 70.97 70.34
33.60 39.16 39.40 39.70 43.12 44.85 44.26 44.39 45.80 45.85 46.65 49.20 49.47 50.09 49.34 48.57 49.44 50.18 52.73 60.32 61.65 62.77 63.64 65.04 67.29 66.59 67.06 67.52 68.44 68.81 68.72 71.13
41.97 45.61 44.72 43.38 43.96 45.47 44.11 44.91 46.19 46.21 46.54 47.50 50.75 51.36 51.14 48.17 49.42 51.19 52.90 58.64 60.94 62.16 63.52 65.52 66.15 66.40 67.34 68.52 69.19 68.04 66.75 66.49